Orbital Elements at Epoch 2459200.5 (2020-Dec-17.0) TDB
Reference: JPL 25 (heliocentric ecliptic J2000)
Element | Value | Uncertainty (1-sigma) | Units |
e | .1491400210696846 | 4.855e-08 | |
a | 2.540536286611323 | 9.426e-09 | au |
q | 2.161640651297811 | 1.2537e-07 | au |
i | 7.37290978308152 | 6.0589e-06 | deg |
node | 135.4024013349074 | 2.1864e-05 | deg |
peri | 320.5248478523463 | 2.9695e-05 | deg |
M | 99.77705788606981 | 1.7218e-05 | deg |
tp | 2458790.565260782719 (2019-Nov-03.06526078) | 7.1223e-05 | TDB |
period | 1479.062514418204 4.05 | 8.2315e-06 2.254e-08 | d yr |
n | .243397419980999 | 1.3546e-09 | deg/d |
Q | 2.919431921924834 | 1.0832e-08 | au |
|
| | Orbit Determination Parameters
Additional Information
|